Location: 22
(39.7117°N, 89.5929°W)
Time: 02:57:54
(UTC-05:00)

A-11 Canister half - Pass Details

Date: 12 June 2023
Orbit: 1524 x 1684 km, 47.3° (Epoch: 30 September)

Event Time Altitude Azimuth Distance (km) Brightness Sun altitude
Rises 20:49:22 0° 256° (WSW) 4,685 12.2 -4.5°
Reaches altitude 10° 20:52:28 10° 260° (W) 3,694 11.7 -4.9°
Maximum altitude 21:01:41 66° 342° (NNW) 1,647 9.5 -6.4°
Drops below altitude 10° 21:10:59 10° 64° (ENE) 3,717 10.8 -7.8°
Sets 21:14:07 0° 67° (ENE) 4,715 11.3 -8.2°
